AO-07 1 07530U 74089B 21301.45144178 -.00000024 00000-0 13680-3 0 9992 2 07530 101.8733 275.8937 0012380 125.5201 353.1565 12.53651008148395 UO-11 1 14781U 84021B 21301.42134688 .00000375 00000-0 51816-4 0 9999 2 14781 97.6014 294.7718 0008732 14.6957 345.4510 14.83349940 5642 LO-19 1 20442U 90005G 21301.43147875 .00000062 00000-0 39057-4 0 9998 2 20442 98.7591 258.2099 0012583 126.9374 233.2964 14.33003008659875 HUBBLE 1 20580U 90037B 21301.26906334 .00001279 00000-0 66193-4 0 9992 2 20580 28.4700 266.1901 0002811 57.5891 93.4740 15.09802241531086 MET-2/21 1 22782U 93055A 21301.27288292 .00000020 00000-0 44239-5 0 9999 2 22782 82.5523 198.5027 0021142 280.1860 195.4572 13.83841574421896 AO-27 1 22825U 93061C 21301.30937964 .00000016 00000-0 24269-4 0 9990 2 22825 98.9119 322.1496 0008637 15.1935 344.9505 14.30128895464974 IO-26 1 22826U 93061D 21301.59797952 .00000021 00000-0 25963-4 0 9991 2 22826 98.9060 322.3417 0008909 1.2307 358.8895 14.30469712465519 FO-29 1 24278U 96046B 21301.39989989 -.00000002 00000-0 32813-4 0 9993 2 24278 98.5510 351.6697 0350670 165.0079 196.1782 13.53107142244224 NOAA-15 1 25338U 98030A 21301.60678025 .00000066 00000-0 45864-4 0 9995 2 25338 98.6715 328.8737 0009393 250.9663 109.0500 14.26065923220223 GO-32 1 25397U 98043D 21301.44306091 .00000026 00000-0 30922-4 0 9992 2 25397 98.7852 246.7061 0002303 71.5041 288.6387 14.23719468210414 ISS 1 25544U 98067A 21301.73486088 .00005075 00000-0 10082-3 0 9992 2 25544 51.6445 42.3761 0003708 149.3935 306.7707 15.48823231309292 NO-44 1 26931U 01043C 21301.42651494 .00000040 00000-0 47068-4 0 9994 2 26931 67.0503 297.2569 0005697 274.8617 85.1834 14.30639315 48215 SO-50 1 27607U 02058C 21301.38966902 .00000364 00000-0 72119-4 0 9994 2 27607 64.5544 291.8114 0057259 343.2419 16.6789 14.75812162 14124 CO-55 1 27844U 03031E 21301.29152685 .00000122 00000-0 74415-4 0 9997 2 27844 98.6820 307.4981 0010783 57.8850 302.3373 14.22343701950860 CO-57 1 27848U 03031J 21301.53549718 .00000100 00000-0 65014-4 0 9996 2 27848 98.6872 308.2932 0010780 69.6997 290.5338 14.21916320950755 RS-22 1 27939U 03042A 21301.86188572 .00000288 00000-0 60059-4 0 9993 2 27939 98.1609 78.1777 0012203 213.9830 146.0596 14.67046513967084 NOAA-18 1 28654U 05018A 21301.60479232 .00000134 00000-0 96410-4 0 9991 2 28654 98.9799 6.9079 0013305 265.7272 94.2379 14.12651007847338 CO-58 1 28895U 05043F 21301.29680112 .00000425 00000-0 89959-4 0 9995 2 28895 98.0776 71.7788 0017472 148.7243 211.5003 14.63988314853442 Falconsat-3 1 30776U 07006E 21301.39126353 .00011987 00000-0 26980-3 0 9999 2 30776 35.4349 324.9201 0001019 34.0699 326.0095 15.42502719813638 CO-65 1 32785U 08021C 21301.40907552 .00000908 00000-0 10246-3 0 9998 2 32785 97.6278 275.2086 0011439 285.0844 74.9108 14.88859161731950 AAUSAT2 1 32788U 08021F 21301.41845641 .00001280 00000-0 11933-3 0 9990 2 32788 97.5157 290.5896 0011408 175.6954 184.4368 14.95872499733739 DO-64 1 32789U 08021G 21301.60719382 .00004128 00000-0 25954-3 0 9996 2 32789 97.3659 331.8189 0012755 51.0965 309.1400 15.09692262737016 CO-66 1 32791U 08021J 21301.39862351 .00001044 00000-0 10935-3 0 9997 2 32791 97.5860 280.9707 0011642 240.6454 119.3603 14.91602802732593 RS-30 1 32953U 08025A 21301.66880913 .00000021 00000-0 80971-4 0 9997 2 32953 82.5040 328.0881 0020389 49.2185 311.0658 12.43105268609533 PRISM 1 33493U 09002B 21301.40431728 .00002851 00000-0 24651-3 0 9996 2 33493 98.2063 270.4916 0013949 199.3509 160.7184 14.98003374694222 NOAA-19 1 33591U 09005A 21301.58096039 .00000076 00000-0 66263-4 0 9992 2 33591 99.1757 325.5389 0014788 117.5883 242.6792 14.12503850655712 SRMSAT 1 37841U 11058D 21301.13381775 .00000337 00000-0 39955-4 0 9998 2 37841 19.9713 219.1464 0011709 311.6330 183.6973 14.10708876518392 HRBE 1 37855U 11061F 21301.25135586 .00007027 00000-0 33554-3 0 9998 2 37855 101.7243 293.6725 0164683 35.5411 325.6640 15.08458437546195 RS-40 1 38735U 12041C 21301.52712700 .00000012 00000-0 15516-4 0 9990 2 38735 82.4796 50.1072 0017846 153.6476 206.5515 12.42583507419710 ZACUBE-1 1 39417U 13066B 21301.22844501 .00000809 00000-0 10614-3 0 9995 2 39417 97.6084 278.7827 0060037 85.9590 274.8483 14.81640997428732 Delfi-N3xt 1 39428U 13066N 21301.39327783 .00001383 00000-0 22455-3 0 9997 2 39428 97.7916 241.2158 0118258 299.8332 59.1160 14.68206777424472 GOMX-1 1 39430U 13066Q 21301.79423170 .00000518 00000-0 10126-3 0 9992 2 39430 97.8110 217.1917 0151757 55.0899 306.4463 14.59708454422491 LO-74 1 39440U 13066AA 21301.43337589 .00000581 00000-0 86531-4 0 9996 2 39440 97.6941 264.3360 0079987 163.0841 197.3065 14.76361849426041 AO-73 1 39444U 13066AE 21301.40027960 .00001039 00000-0 13161-3 0 9993 2 39444 97.5982 281.3307 0059010 75.2724 285.5020 14.82574459427130 SPROUT 1 39770U 14029E 21301.77133666 .00001888 00000-0 20760-3 0 9991 2 39770 97.9262 53.0321 0009767 124.9946 235.2188 14.88800193403177 DTUSAT-2 1 40030U 14033W 21301.33916525 .00000974 00000-0 10901-3 0 9993 2 40030 97.9196 228.5751 0013263 96.4471 263.8256 14.89138256399095 EO-80 1 40032U 14033Y 21301.37320617 .00000956 00000-0 10728-3 0 9997 2 40032 97.9202 228.6180 0013202 97.4114 262.8603 14.89099648399074 HODOYOSHI-1 1 40299U 14070B 21301.84191708 .00001788 00000-0 74172-4 0 9990 2 40299 97.2737 11.7490 0011214 231.9442 220.8472 15.25083174387747 FIREBIRD FU3 1 40377U 15003B 21301.39888925 .00007077 00000-0 24775-3 0 9998 2 40377 99.1146 110.7493 0114988 87.0966 274.3419 15.23789571373028 FIREBIRD FU4 1 40378U 15003C 21301.43618442 .00007323 00000-0 25565-3 0 9991 2 40378 99.1151 110.9586 0115006 86.7380 274.7001 15.23856199373031 GRIFEX 1 40379U 15003D 21301.38100935 .00006950 00000-0 27218-3 0 9991 2 40379 99.1133 99.0288 0126506 122.3325 239.0227 15.19052432372352 NO-84 1 40654U 15025D 21300.24285945 .00139729 17585-4 50992-3 0 2113 2 40654 54.9683 133.8674 0047925 62.0796 298.5072 15.86322508 27838 XW-2A 1 40903U 15049E 21301.83915620 .00007079 00000-0 14376-3 0 9993 2 40903 97.2193 355.8917 0010107 244.7688 175.7792 15.46595365343406 XW-2C 1 40906U 15049H 21301.81737648 .00001820 00000-0 94975-4 0 9998 2 40906 97.4914 302.5648 0016213 85.1728 37.9162 15.17102740337781 XW-2D 1 40907U 15049J 21301.84688751 .00001955 00000-0 10072-3 0 9996 2 40907 97.4897 302.4378 0015534 81.0091 38.5378 15.17471960337828 LILACSAT-2 1 40908U 15049K 21301.81498934 .00001079 00000-0 61760-4 0 9994 2 40908 97.5111 300.0529 0017411 97.8739 25.9262 15.14651705337412 XW-2E 1 40909U 15049L 21301.84019854 .00003020 00000-0 14249-3 0 9995 2 40909 97.4692 306.6095 0014830 67.7397 53.8820 15.20142007338197 XW-2F 1 40910U 15049M 21301.82214297 .00003048 00000-0 14584-3 0 9995 2 40910 97.4761 305.6815 0015813 67.7759 56.8635 15.19638870337977 XW-2B 1 40911U 15049N 21301.85719972 .00002046 00000-0 10556-3 0 9991 2 40911 97.4897 303.1097 0015498 82.5076 37.1737 15.17384777337718 DCBB 1 40912U 15049P 21301.85656632 .00003532 00000-0 15613-3 0 9995 2 40912 97.4446 310.0990 0015381 40.7857 81.1953 15.22262422338484 TW-1A 1 40928U 15051D 21301.87569622 .00010324 00000-0 19968-3 0 9993 2 40928 97.0682 323.6657 0009890 150.8097 331.9095 15.47881743342316 IO-86 1 40931U 15052B 21301.25892868 .00001102 00000-0 64471-4 0 9995 2 40931 5.9958 25.2446 0011623 121.3076 238.9201 14.76701740328961 ATHENOXAT-1 1 41168U 15077C 21301.44114313 .00004939 00000-0 21062-3 0 9997 2 41168 14.9966 2.8221 0010671 226.5936 239.6293 15.16445964324996 ChubuSat-2 1 41338U 16012B 21301.43815780 .00001021 00000-0 72012-4 0 9992 2 41338 31.0034 60.1971 0013664 11.3530 348.7412 15.00659681312599 ChubuSat-3 1 41339U 16012C 21301.64804940 .00000644 00000-0 42788-4 0 9999 2 41339 31.0113 55.9551 0013699 20.7749 339.3442 15.00795287312624 Horyu-4 1 41340U 16012D 21301.39897555 .00001630 00000-0 11447-3 0 9990 2 41340 31.0057 39.4221 0013715 52.9970 307.1919 15.02106879312791 e-st@r-II 1 41459U 16025D 21301.81250922 .00003240 00000-0 15823-3 0 9994 2 41459 98.1613 86.1926 0156710 333.2452 26.0772 15.08940627302525 AAUSAT4 1 41460U 16025E 21301.68661866 .00004826 00000-0 22044-3 0 9998 2 41460 98.1582 90.6417 0143068 315.2896 43.6923 15.12409765302847 LO-87 1 41557U 16033B 21301.77341684 .00004523 00000-0 15672-3 0 9990 2 41557 97.3934 35.0244 0014103 118.8169 358.6366 15.30262028301910 NuSat2 1 41558U 16033C 21301.78728822 .00004683 00000-0 15195-3 0 9992 2 41558 97.4072 39.4976 0013215 111.6645 4.6713 15.32383486302131 Lapan A3 1 41603U 16040E 21301.83246728 .00000447 00000-0 23704-4 0 9997 2 41603 97.2398 343.5902 0011550 253.3823 224.4050 15.20141348296843 Pratham 1 41783U 16059A 21301.13393535 .00000167 00000-0 41233-4 0 9994 2 41783 97.9486 346.5876 0033453 185.1874 174.8986 14.63180521271654 TY-1 1 41844U 16066D 21301.83855501 .00002653 00000-0 10483-3 0 9997 2 41844 97.3984 310.7078 0015451 33.7673 88.8372 15.26279354276245 CAS-2T 1 41847U 16066G 21301.42403179 .00000486 00000-0 83010-4 0 9994 2 41847 98.5857 1.0061 0365070 183.2279 176.6550 14.38263623260993 EO-88 1 42017U 17008BX 21301.18649477 .00006409 00000-0 22909-3 0 9997 2 42017 97.3018 6.3809 0005814 14.3887 345.7518 15.29143660261536 CAS-4B 1 42759U 17034B 21301.90317130 .00001183 00000-0 83826-4 0 9997 2 42759 43.0169 167.2952 0009245 281.7524 261.9327 15.10482333241325 CAS-4A 1 42761U 17034D 21301.87341418 .00001009 00000-0 73314-4 0 9990 2 42761 43.0171 166.4141 0009738 283.0421 189.8787 15.10566590241326 NIUSat 1 42766U 17036B 21301.42921906 .00003656 00000-0 15646-3 0 9997 2 42766 97.2354 342.7183 0016426 69.9014 290.3989 15.23298079241455 Aalto 1 1 42775U 17036L 21301.34483201 .00002991 00000-0 12918-3 0 9999 2 42775 97.2320 342.8101 0015004 69.7012 290.5836 15.23142498241429 URSA MAIOR 1 42776U 17036M 21301.38810211 .00003365 00000-0 14367-3 0 9995 2 42776 97.2333 343.3983 0014738 68.8864 291.3947 15.23456714241450 Max Valier Sat 1 42778U 17036P 21301.07931933 .00003642 00000-0 15215-3 0 9999 2 42778 97.2400 345.2719 0013302 72.0374 288.2312 15.24157866241485 Pegasus 1 42784U 17036V 21301.39862705 .00004182 00000-0 16946-3 0 9993 2 42784 97.2349 346.1389 0012897 73.2802 286.9851 15.25108792241617 NUDATSat 1 42787U 17036Y 21301.61497226 .00004778 00000-0 18024-3 0 9993 2 42787 97.2384 349.2295 0011936 65.4284 294.8198 15.27441132241655 SUCHAI 1 1 42788U 17036Z 21301.38893383 .00005403 00000-0 21213-3 0 9992 2 42788 97.2359 347.3039 0012310 70.4339 289.8228 15.26052182241758 SKCUBE 1 42789U 17036AA 21301.37791035 .00004939 00000-0 19607-3 0 9990 2 42789 97.2355 346.9368 0012256 71.1463 289.1104 15.25722942241652 VZLUSAT 1 1 42790U 17036AB 21301.15321937 .00007010 00000-0 26350-3 0 9994 2 42790 97.2387 348.7672 0011455 67.4085 292.8365 15.27401447241730 VENTA 1 1 42791U 17036AC 21301.36563923 .00004368 00000-0 17435-3 0 9998 2 42791 97.2351 346.9193 0011987 71.8266 288.4277 15.25608171241644 Robusta 1B 1 42792U 17036AD 21301.39002537 .00005173 00000-0 20354-3 0 9990 2 42792 97.2355 347.3836 0011835 71.1221 289.1300 15.26005225241696 D-SAT 1 42794U 17036AF 21301.31447701 .00000935 00000-0 84796-4 0 9992 2 42794 97.4578 314.1322 0126161 141.3003 219.7340 14.91736049236868 TechnoSat 1 42829U 17042E 21301.43865417 .00000662 00000-0 71444-4 0 9992 2 42829 97.4475 163.7711 0015567 65.5163 294.7678 14.91379221233504 QIKCOM-1 1 42983U 98067NF 21301.38226181 .00021468 00000-0 17755-3 0 9993 2 42983 51.6355 302.5542 0003585 107.5167 252.6222 15.70216269228262 AO-91 1 43017U 17073E 21301.28063688 .00001514 00000-0 12166-3 0 9991 2 43017 97.6929 199.9237 0252645 226.6579 131.3334 14.79885458212765 EcAMSat 1 43019U 98067NG 21301.30849384 .00158097 21068-4 37970-3 0 9993 2 43019 51.6358 250.8301 0005211 109.9100 250.2470 15.96146626311264 PICSAT 1 43132U 18004X 21301.15563677 .00006212 00000-0 23942-3 0 9997 2 43132 97.3979 14.4851 0010407 100.0538 260.1876 15.26640480210921 AO-92 1 43137U 18004AC 21301.42103551 .00004458 00000-0 17652-3 0 9994 2 43137 97.3951 14.0567 0010251 101.2222 259.0169 15.25898310210935 TianYi 2 1 43155U 18008A 21301.89318148 .00002160 00000-0 12607-3 0 9992 2 43155 97.3871 2.7764 0015902 222.8373 252.5423 15.12881638208247 Zhou Enlai 1 43156U 18008B 21301.86214243 .00002311 00000-0 13607-3 0 9990 2 43156 97.3915 2.5855 0012985 223.8619 256.2494 15.12519444208172 TianYi 6 1 43158U 18008D 21301.78151160 .00001969 00000-0 11859-3 0 9996 2 43158 97.3868 0.8873 0012059 225.1842 203.9237 15.11884261208082 S-Net D 1 43186U 18014G 21301.36089493 .00001441 00000-0 12949-3 0 9993 2 43186 97.6674 206.4843 0011008 6.4120 353.7240 14.97196879204183 S-Net B 1 43187U 18014H 21301.36086517 .00001438 00000-0 12925-3 0 9998 2 43187 97.6671 206.4458 0010992 6.3250 353.8108 14.97196274204180 S-Net A 1 43188U 18014J 21301.29418352 .00001436 00000-0 12908-3 0 9996 2 43188 97.6674 206.4313 0011007 6.6451 353.4915 14.97195026204173 S-Net C 1 43189U 18014K 21301.36152038 .00001418 00000-0 12750-3 0 9996 2 43189 97.6670 206.4378 0011010 6.3846 353.7514 14.97194998202735 FMN 1 1 43192U 18015A 21301.88824789 .00008934 00000-0 31414-3 0 9995 2 43192 97.5073 78.1798 0014869 128.1133 350.9796 15.29490830207974 Shaonian Xing 1 43199U 18015H 21301.90700247 .00006071 00000-0 22058-3 0 9991 2 43199 97.4855 74.8285 0016392 137.7348 342.5285 15.28535699208028 SurfSat 1 43614U 18070B 21301.43688474 .00010864 00000-0 23863-3 0 9999 2 43614 93.0295 1.4790 0012645 195.1640 164.9240 15.43932266175171 CP-7 DAVE 1 43615U 18070C 21301.41716106 .00010905 00000-0 24249-3 0 9997 2 43615 93.0301 1.4078 0012834 195.8953 164.1903 15.43564197175153 ELFIN-B 1 43616U 18070D 21301.40727018 .00018961 00000-0 36674-3 0 9996 2 43616 93.0250 1.7892 0012530 190.4056 169.6945 15.47619315175313 ELFIN-A 1 43617U 18070E 21301.19035599 .00019759 00000-0 37351-3 0 9998 2 43617 93.0303 2.6811 0012060 187.4716 172.6365 15.48284202175304 CubeBel-1 1 43666U 18083E 21301.85970199 .00002809 00000-0 13353-3 0 9997 2 43666 97.4458 328.5254 0015959 66.6457 58.6023 15.19923470166273 Changshagaoxin 1 43669U 18083H 21301.76051417 .00002471 00000-0 12233-3 0 9994 2 43669 97.4383 325.0975 0012095 65.3108 56.4034 15.18666707166119 Ten-Koh 1 43677U 18084G 21301.31026713 .00000624 00000-0 69678-4 0 9990 2 43677 97.9368 64.8215 0015053 320.6104 39.4018 14.90564220163094 PO-101 1 43678U 18084H 21301.66493064 .00000630 00000-0 68229-4 0 9994 2 43678 97.9412 67.7693 0009348 339.8693 20.2156 14.91819503163293 IRVINE 01 1 43693U 18088D 21301.18940661 .00011437 00000-0 42730-3 0 9997 2 43693 85.0306 106.6426 0013766 252.0280 107.9464 15.27138570164681 QO-100 1 43700U 18090A 21301.37896493 .00000151 00000-0 00000-0 0 9995 2 43700 0.0131 227.9884 0002583 17.0489 314.1506 1.00272987 10702 Reaktor Hello World 1 43743U 18096AA 21301.22415799 .00005675 00000-0 19971-3 0 9994 2 43743 97.3758 17.7102 0017385 160.8098 199.3801 15.29588265162423 MinXSS-2 1 43758U 18099A 21301.19263314 .00001237 00000-0 11445-3 0 9991 2 43758 97.6538 9.5574 0014503 328.2721 31.7625 14.96258134158365 AO-95 1 43770U 18099N 21301.13889168 .00001433 00000-0 13433-3 0 9997 2 43770 97.6520 8.3142 0013681 339.7317 20.3359 14.95498250158285 RANGE-B 1 43772U 18099Q 21301.13865004 .00001778 00000-0 16400-3 0 9991 2 43772 97.6613 9.5243 0012942 325.6889 34.3495 14.95850885158295 RANGE-A 1 43773U 18099R 21301.42339306 .00000559 00000-0 55729-4 0 9999 2 43773 97.6452 7.7763 0012537 325.8059 34.2354 14.95346139158313 MOVE-II 1 43780U 18099Y 21301.44396174 .00001285 00000-0 11886-3 0 9997 2 43780 97.6542 9.3131 0012630 334.2509 25.8082 14.96207003158351 SNUSat 2 1 43782U 18099AA 21301.41830670 .00001175 00000-0 11051-3 0 9992 2 43782 97.6522 8.9745 0011616 324.9162 35.1293 14.95729655158349 SnugLite 1 43784U 18099AC 21301.14737433 .00001336 00000-0 12445-3 0 9994 2 43784 97.6485 8.4024 0014074 332.8995 27.1490 14.95868544158326 ITASat 1 1 43786U 18099AE 21301.43430936 .00000450 00000-0 45428-4 0 9990 2 43786 97.6543 9.3733 0014351 331.0003 29.0419 14.95770656158361 EAGLET 1 1 43790U 18099AJ 21301.43818757 .00000175 00000-0 20627-4 0 9994 2 43790 97.6532 9.8412 0012821 335.1493 24.9109 14.96100083158093 ESEO 1 43792U 18099AL 21301.17820402 .00000007 00000-0 57676-5 0 9996 2 43792 97.6492 9.0677 0012584 333.0710 26.9857 14.95816273158108 CSIM 1 43793U 18099AM 21301.18643291 .00001542 00000-0 13932-3 0 9997 2 43793 97.6532 9.7137 0011951 326.7113 33.3356 14.96872438158129 Astrocast 0.1 1 43798U 18099AS 21301.43345966 .00000917 00000-0 85956-4 0 9999 2 43798 97.6542 10.0921 0011224 314.1422 45.8875 14.96377980158405 JO-97 1 43803U 18099AX 21301.44175472 .00000691 00000-0 66551-4 0 9999 2 43803 97.6502 9.1200 0014274 330.0701 29.9703 14.96051873158371 Suomi 100 1 43804U 18099AY 21301.18263680 .00000833 00000-0 79249-4 0 9996 2 43804 97.6496 8.8216 0014310 330.9679 29.0745 14.96011762158348 Al Farabi 2 1 43805U 18099AZ 21301.89805580 .00001384 00000-0 12732-3 0 9991 2 43805 97.6529 9.8157 0014253 329.6551 30.3838 14.96289222158460 CHOMPTT 1 43855U 18104G 21301.33253049 .00004238 00000-0 16989-3 0 9998 2 43855 85.0403 205.4093 0017860 23.9613 336.2457 15.24550030159332 ISAT 1 43879U 18111D 21301.83645167 .00001712 00000-0 15415-3 0 9990 2 43879 97.6733 206.6674 0013793 23.8542 336.3318 14.96847702153000 UWE-4 1 43880U 18111E 21301.20226426 .00001248 00000-0 11312-3 0 9992 2 43880 97.6759 206.6020 0012721 24.8647 335.3186 14.97063248154944 Sparrow 1 43881U 18111F 21301.30136806 .00001769 00000-0 15799-3 0 9997 2 43881 97.6781 206.8590 0013216 24.0725 336.1112 14.97137297154969 Lume 1 1 43908U 18111AJ 21301.33253063 .00004158 00000-0 15932-3 0 9999 2 43908 97.2148 191.7066 0020046 174.7148 185.4307 15.26879425157944 FO-98 1 43933U 19003B 21301.35835902 .00033092 00000-0 10785-2 0 9997 2 43933 97.1710 338.0646 0011967 278.3431 81.6454 15.31680823154411 FO-99 1 43937U 19003F 21301.36296312 .00004873 00000-0 18822-3 0 9994 2 43937 97.1627 339.1731 0020890 259.8998 99.9884 15.26510974154531 MYSat 1 1 44045U 18092F 21301.36934476 .00012320 00000-0 29392-3 0 9992 2 44045 51.6353 136.7651 0009004 330.5669 29.4809 15.41910254151951 AstroCast 0.2 1 44083U 19018F 21301.43344803 .00005931 00000-0 25302-3 0 9997 2 44083 97.3574 359.9585 0011610 219.3568 140.6826 15.23234131143137 AISTechSat 3 1 44103U 19018AB 21301.79965823 .00002814 00000-0 11689-3 0 9990 2 44103 97.3437 0.7567 0011625 229.3718 224.4507 15.24586771143322 AISat 1 1 44104U 19018AC 21301.23399908 .00003680 00000-0 11418-3 0 9997 2 44104 97.4158 18.8297 0054427 241.6892 117.8853 15.32610897144002 Prox-1 1 44339U 19036A 21301.19823634 .00001805 00000-0 37183-3 0 9994 2 44339 23.9994 218.0124 0011439 191.4199 168.6034 14.53854901124501 Oculus-ASR 1 44348U 19036K 21301.41569514 .00035150 00000-0 45313-3 0 9997 2 44348 28.5143 326.4215 0311710 270.4723 86.0165 15.16881737129082 Armadillo 1 44352U 19036P 21301.33288707 .00067127 00000-0 76326-3 0 9992 2 44352 28.5282 294.0212 0269695 320.9852 37.1570 15.27701457129355 NO-104 1 44354U 19036R 21301.43437891 .00039184 00000-0 49150-3 0 9992 2 44354 28.5302 317.4605 0305713 282.6484 74.0097 15.18651591129170 NO-103 1 44355U 19036S 21301.24388196 .00099490 -38574-5 89075-3 0 9994 2 44355 28.5238 248.1152 0218682 35.4461 326.0461 15.42005020129850 CP9 1 44360U 19036X 21298.30413016 .01594744 18532-2 12518-2 0 9990 2 44360 28.4843 154.2459 0035176 200.8010 159.1175 16.12399308130387 Move-IIb 1 44398U 19038N 21301.55405792 .00003744 00000-0 20625-3 0 9999 2 44398 97.5984 265.1345 0022651 207.2759 152.7285 15.14422966127905 SONATE 1 44400U 19038Q 21301.60581498 .00001625 00000-0 95611-4 0 9991 2 44400 97.6063 264.9307 0023592 208.5119 151.4817 15.12877677127865 BeeSat 9 1 44412U 19038AC 21301.35852952 .00003386 00000-0 19027-3 0 9994 2 44412 97.6054 265.0717 0020785 212.4466 147.5489 15.13821597127553 JAISAT-1 1 44419U 19038F 21301.41790583 .00003301 00000-0 18319-3 0 9999 2 44419 97.6058 265.7839 0019755 209.6919 150.3193 15.14306541127914 LightSail-2 1 44420U 19036AC 21301.35078760 .00014813 00000-0 28774-2 0 9993 2 44420 24.0038 187.4218 0020234 221.8272 138.0674 14.61421640122945 Taurus 1 1 44530U 19059C 21301.77701071 .00000770 00000-0 22744-3 0 9993 2 44530 98.5511 33.2612 0015067 101.3254 258.9633 14.46254197112350 Duchifat 3 1 44854U 19089C 21301.56300206 .00001284 00000-0 10831-3 0 9992 2 44854 36.9675 33.3331 0006648 136.7738 223.3571 14.99728997103099 OPS-SAT 1 44878U 19092F 21301.25873874 .00004415 00000-0 22622-3 0 9994 2 44878 97.4772 122.8906 0015018 70.7377 289.5479 15.17004858102964 TO-108 1 44881U 19093C 21301.79417403 .00000178 00000-0 29398-4 0 9990 2 44881 97.9153 19.1099 0014085 215.2499 144.7786 14.81498242100472 FloripaSat 1 1 44885U 19093G 21301.80314216 .00000591 00000-0 80370-4 0 9990 2 44885 97.9171 19.9124 0013658 223.0911 136.9239 14.82431006100522 RS-44 1 44909U 19096E 21301.30291111 .00000014 00000-0 43519-5 0 9998 2 44909 82.5263 24.5334 0218181 142.3353 219.3255 12.79711278 85811 HO-107 1 45119U 19071J 21301.43974618 .00008477 00000-0 24000-3 0 9992 2 45119 51.6396 111.5418 0011005 53.5484 306.6513 15.37077750 97618 Phoenix 1 45258U 98067RB 21301.25077932 .00024877 00000-0 30142-3 0 9997 2 45258 51.6391 22.8377 0006032 25.3842 334.7447 15.60477004 95915 AztechSat-1 1 45261U 98067RE 21301.45298477 .00179059 00000-0 81351-3 0 9993 2 45261 51.6310 357.7766 0008955 28.6689 331.4805 15.82766493 96294 QARMAN 1 45263U 98067RG 21301.43790584 .00072094 00000-0 55321-3 0 9998 2 45263 51.6363 9.0513 0007145 29.3753 330.7645 15.71380496 96175 Quetzal 1 1 45598U 98067RL 21301.25068465 .00061262 00000-0 54802-3 0 9993 2 45598 51.6386 16.8591 0002359 22.3826 337.7273 15.67762590 85322 BY70-2 1 45857U 20042B 21301.81354174 .00001924 00000-0 27699-3 0 9999 2 45857 97.9755 16.1541 0012268 140.6021 219.6091 14.77453197 71233 UPMSat 2 1 46276U 20061E 21301.36694290 .00001700 00000-0 90073-4 0 9991 2 46276 97.4205 12.4057 0000334 142.8975 217.2281 15.16735192 63685 AmicalSat 1 46287U 20061R 21301.18601993 .00002012 00000-0 12490-3 0 9994 2 46287 97.4756 11.4826 0003054 30.4050 329.7357 15.10815771 63385 SALSAT 1 46495U 20068K 21301.56473368 .00001294 00000-0 98886-4 0 9992 2 46495 97.7008 238.3345 0016442 347.2425 12.8380 15.03626725 59332 BY70-3 1 46839U 20079N 21301.76806829 .00006991 00000-0 20854-3 0 9998 2 46839 97.2284 12.9848 0008693 89.4107 30.3105 15.34915381 54642 SPOC 1 46921U 98067RR 21301.41333008 .00025822 00000-0 34240-3 0 9996 2 46921 51.6413 31.4997 0000990 258.1453 101.9429 15.58080141 55563 Bobcat-1 1 46922U 98067RS 21301.40554593 .00041725 00000-0 47271-3 0 9998 2 46922 51.6423 27.7293 0001665 311.5606 48.5245 15.61970012 55578 Neutron-1 1 46923U 98067RT 21300.79846397 .00026817 00000-0 35746-3 0 9995 2 46923 51.6419 34.8901 0001334 272.6431 87.4408 15.57917805 55484 CAPE 3 1 47309U 21002A 21301.36466630 .00003725 00000-0 17295-3 0 9993 2 47309 60.6826 154.8504 0042889 119.2680 241.2704 15.21395678 43103 AO-109 1 47311U 21002C 21301.13411377 .00003989 00000-0 18038-3 0 9997 2 47311 60.6854 154.3224 0039986 114.4285 246.0981 15.22239341 43063 MiTEE 1 1 47314U 21002F 21301.32309150 .00006974 00000-0 28882-3 0 9991 2 47314 60.6839 151.2012 0041153 107.4987 253.0605 15.24179605 43159 ExoCube 2 1 47319U 21002L 21301.13731089 .00003901 00000-0 17850-3 0 9995 2 47319 60.6838 154.8701 0040765 116.4489 244.0789 15.21857864 43028 UVSQ-SAT 1 47438U 21006AB 21301.41972666 .00002396 00000-0 13713-3 0 9991 2 47438 97.4722 0.1813 0012599 6.3283 353.8105 15.13531228 42169 YUSAT 1 1 47439U 21006AC 21301.42033878 .00002763 00000-0 15734-3 0 9999 2 47439 97.4725 0.1897 0012418 6.8711 353.2689 15.13586033 42161 SOMP 2b 1 47445U 21006AJ 21301.11825356 .00001945 00000-0 11260-3 0 9993 2 47445 97.4694 359.7167 0012387 11.5182 348.6330 15.13347349 42117 IDEASSat 1 47458U 21006AX 21301.40767385 .00002211 00000-0 12799-3 0 9991 2 47458 97.4784 0.2763 0011422 9.0587 351.0848 15.13212021 42155 RSP-01 1 47925U 98067SB 21301.29902613 .00027940 00000-0 40704-3 0 9996 2 47925 51.6422 38.9679 0000677 170.9372 189.1631 15.55493261 35424 TAUSAT-1 1 47926U 98067SC 21301.32113077 .00037047 00000-0 50696-3 0 9999 2 47926 51.6409 37.6047 0001085 172.7834 187.3173 15.57043311 35433 Tsuru 1 47927U 98067SD 21300.55914793 .00025640 00000-0 38233-3 0 9997 2 47927 51.6425 43.0267 0000900 160.9479 199.1546 15.54906264 35309 STARS-EC 1 47928U 98067SE 21301.45017964 .00035662 00000-0 49172-3 0 9991 2 47928 51.6417 37.7175 0004709 267.2199 92.8254 15.56848800 35432 Maya-2 1 47929U 98067SF 21301.32627589 .00024550 00000-0 36568-3 0 9997 2 47929 51.6425 39.1486 0000961 154.1944 205.9095 15.54961901 35381 OPUSAT-II 1 47930U 98067SG 21301.45564547 .00039570 00000-0 53100-3 0 9996 2 47930 51.6418 37.0157 0000158 39.9893 320.1111 15.57536829 35466 GuaraniSat-1 1 47931U 98067SH 21301.32384184 .00023957 00000-0 35667-3 0 9990 2 47931 51.6426 39.1359 0000944 154.0400 206.0638 15.54991594 35422 CubeSX-Sirius-HSE 1 47951U 21022V 21301.76406716 .00000774 00000-0 57262-4 0 9991 2 47951 97.5432 201.1615 0020546 214.7497 230.9946 15.05929683 33114 CubeSX-HSE 1 47952U 21022W 21301.75828784 .00001249 00000-0 89653-4 0 9991 2 47952 97.5428 201.1634 0020492 214.3721 231.0969 15.05971645 33119 KSU-Cubesat 1 47954U 21022Y 21301.26527623 .00002282 00000-0 15978-3 0 9993 2 47954 97.5458 200.7209 0020435 215.0153 144.9731 15.06081355 32761 GRBAlpha 1 47959U 21022AD 21301.75856888 .00001213 00000-0 87164-4 0 9990 2 47959 97.5435 201.1805 0020298 215.1726 230.9769 15.05975622 31935 Orbicraft-Zorkiy 1 47960U 21022AE 21301.88921887 .00002036 00000-0 14308-3 0 9991 2 47960 97.5458 201.3654 0020450 213.6597 274.7416 15.06059911 32644 STECCO 1 47962U 21022AG 21301.85649432 .00002216 00000-0 15090-3 0 9992 2 47962 97.5435 201.5871 0015524 207.8777 216.8012 15.07223215 31969 DO-111 1 47963U 21022AH 21301.23859988 .00005262 00000-0 34379-3 0 9999 2 47963 97.5450 201.1899 0017971 206.6827 153.3479 15.08115888 31907 MO-110 1 47964U 21022AJ 21301.27462237 .00003646 00000-0 24340-3 0 9992 2 47964 97.5440 201.1265 0018684 207.8444 152.1786 15.07504351 31885 FEES 1 48082U 21022AL 21301.20460567 .00004486 00000-0 30160-3 0 9991 2 48082 97.5452 200.9453 0014952 204.1456 155.9072 15.07175427 31576 RamSat 1 48850U 98067SL 21301.29502268 .00018400 00000-0 30572-3 0 9999 2 48850 51.6429 42.6589 0003997 281.2100 78.8440 15.52124683 21124 MO-112 1 48868U 98067SP 21301.42587107 .00040130 00000-0 60039-3 0 9994 2 48868 51.6417 41.2850 0003376 299.1325 60.9327 15.54578292 19937 TUBIN 1 48900U 21059X 21301.77055141 .00001674 00000-0 10006-3 0 9993 2 48900 97.5266 68.7188 0010441 173.5949 292.6096 15.12403889 18884 IT-SPINS 1 49017U 21013G 21301.40069993 .00003925 00000-0 17724-3 0 9998 2 49017 51.6188 66.7504 0006763 295.6531 64.3747 15.23255575 18384 CUTE 1 49263U 21088D 21301.19139994 .00001770 00000-0 14044-3 0 9996 2 49263 97.6224 8.6734 0018934 139.9653 220.2971 15.01658958 4550 OBJECT SR 1 49272U 98067SR 21301.57006548 .00018403 00000-0 32448-3 0 9996 2 49272 51.6428 42.9858 0004573 173.6766 186.4282 15.50445760 3532 Maya-3 1 49273U 98067SS 21301.56963268 .00022861 00000-0 39954-3 0 9999 2 49273 51.6427 42.9835 0004261 171.3863 188.7200 15.50546599 3531 Maya-4 1 49274U 98067ST 21301.57016687 .00022823 00000-0 39947-3 0 9995 2 49274 51.6427 42.9871 0004157 169.9646 190.1427 15.50505792 3536 CUAVA-1 1 49275U 98067SU 21301.84385507 .00019387 00000-0 33932-3 0 9995 2 49275 51.6439 41.6019 0004724 179.6223 278.7649 15.50616271 3522 /EX
